Weather History for Richmond, VA

Change the Weather History Date:

Tuesday, May 6, 2014

  Actual Average Record
Temperature  
Mean Temperature 65 °F 64 °F  
Max Temperature 74 °F 76 °F 95 °F (1950)
Min Temperature 55 °F 52 °F 39 °F (1925)
Degree Days  
Heating Degree Days 0 4  
Month to date heating degree days 8 24  
Since 1 July heating degree days 3768 3716  
Cooling Degree Days 0 2  
Month to date cooling degree days 11 12  
Year to date cooling degree days 40 54  
Growing Degree Days 14 (Base 50)    
Moisture  
Dew Point 51 °F    
Average Humidity 68    
Maximum Humidity 86    
Minimum Humidity 49    
Precipitation  
Precipitation 0.00 in 0.12 in 1.75 in (1907)
Month to date precipitation 0.03 0.67  
Year to date precipitation 13.63 13.78  
Snow  
Snow 0.00 in 0.00 in 0.00 in (2002)
Month to date snowfall 0.0 0.0  
Since 1 July snowfall 14.5 10.3  
Snow Depth 0.00 in    
Sea Level Pressure  
Sea Level Pressure 29.97 in    
Wind  
Wind Speed 3 mph (East)    
Max Wind Speed 9 mph    
Max Gust Speed 12 mph    
Visibility 10 miles    
Events      
T = Trace of Precipitation, MM = Missing Value Source: NWS Daily Summary

Daily Weather History Graph

Daily Weather History Graph

Search for Another Location

Airport:

Trip Planner

Search our weather history database for the weather conditions in past years. The results will help you decide how hot, cold, wet, or windy it might be!

Date:

Astronomy

May. 06, 2014 Rise Set
Actual Time 6:08 AM EDT 8:03 PM EDT
Civil Twilight 5:40 AM EDT 8:32 PM EDT
Nautical Twilight 5:05 AM EDT 9:07 PM EDT
Astronomical Twilight 4:28 AM EDT 9:44 PM EDT
Moon 12:21 PM EDT (5/6) 1:22 AM EDT (5/6)
Length of Visible Light 14h 52m
Length of Day
13h 55m
Waxing Crescent, 46% of the Moon is Illuminated
May 6
Waxing Crescent
May 6
First Quarter
May 14
Full
May 21
Last Quarter
May 28
New

Hourly Weather History & Observations

Time (EDT) Temp. Dew Point Humidity Pressure Visibility Wind Dir Wind Speed Gust Speed Precip Events Conditions
12:54 AM 55.9 °F 50.0 °F 80% 29.94 in 10.0 mi Calm Calm - N/A   Overcast
1:54 AM 57.0 °F 48.9 °F 74% 29.94 in 10.0 mi NE 4.6 mph - N/A   Overcast
2:54 AM 55.9 °F 48.9 °F 77% 29.93 in 10.0 mi Calm Calm - N/A   Overcast
3:54 AM 55.9 °F 50.0 °F 80% 29.93 in 10.0 mi ESE 3.5 mph - N/A   Overcast
4:54 AM 55.9 °F 48.9 °F 77% 29.93 in 10.0 mi East 4.6 mph - N/A   Overcast
5:22 AM 55.4 °F 50.0 °F 82% 29.91 in 10.0 mi ENE 4.6 mph - N/A   Overcast
5:54 AM 55.0 °F 51.1 °F 86% 29.94 in 10.0 mi NE 3.5 mph - N/A   Overcast
7:54 AM 55.9 °F 50.0 °F 80% 29.96 in 10.0 mi ENE 5.8 mph - N/A   Overcast
8:54 AM 57.0 °F 48.9 °F 74% 29.99 in 10.0 mi ENE 8.1 mph - N/A   Overcast
10:54 AM 63.0 °F 51.1 °F 65% 29.99 in 10.0 mi Calm Calm - N/A   Overcast
11:54 AM 64.9 °F 50.0 °F 58% 29.98 in 10.0 mi Variable 3.5 mph - N/A   Overcast
12:54 PM 66.9 °F 51.1 °F 57% 29.97 in 10.0 mi Calm Calm - N/A   Overcast
1:54 PM 66.9 °F 51.1 °F 57% 29.97 in 10.0 mi Variable 3.5 mph - N/A   Overcast
2:54 PM 69.1 °F 51.1 °F 53% 29.95 in 10.0 mi Calm Calm - N/A   Mostly Cloudy
3:54 PM 71.1 °F 51.1 °F 49% 29.95 in 10.0 mi Calm Calm - N/A   Mostly Cloudy
4:54 PM 72.0 °F 51.1 °F 48% 29.94 in 10.0 mi Calm Calm - N/A   Mostly Cloudy
5:54 PM 72.0 °F 51.1 °F 48% 29.96 in 10.0 mi Calm Calm - N/A   Mostly Cloudy
6:54 PM 70.0 °F 54.0 °F 57% 29.97 in 10.0 mi South 6.9 mph - N/A   Mostly Cloudy
7:54 PM 68.0 °F 54.0 °F 61% 30.00 in 9.0 mi Calm Calm - N/A   Mostly Cloudy
8:54 PM 64.0 °F 55.0 °F 73% 30.01 in 10.0 mi Calm Calm - N/A   Mostly Cloudy
9:54 PM 63.0 °F 55.0 °F 75% 30.04 in 10.0 mi East 6.9 mph - N/A   Mostly Cloudy
10:54 PM 61.0 °F 55.0 °F 81% 30.05 in 10.0 mi SSE 3.5 mph - N/A   Mostly Cloudy
11:54 PM 60.1 °F 55.0 °F 83% 30.06 in 10.0 mi ESE 4.6 mph - N/A   Mostly Cloudy